Location: Namasale
(1.5000°N, 32.6167°E)
Time: 05:54:33
(UTC+00:00)

A-11 Canister half - All Passes

Search period start: 14 April 2021 00:00
Search period end: 24 April 2021 00:00
Orbit: 1525 x 1683 km, 47.3° (Epoch: 12 April)

Date Brightness Start Highest point End Pass type
(mag) Time Alt. Az. Time Alt. Az. Time Alt. Az.
14 Apr - 00:26:47 10° WNW 00:35:55 47° SW 00:44:50 10° SSE visible
14 Apr - 09:14:37 10° SSE 09:17:32 12° SE 09:20:28 10° ESE daylight
14 Apr - 11:13:13 10° SSW 11:22:50 69° SE 11:32:46 10° NE daylight
14 Apr - 13:20:16 10° W 13:27:58 26° NW 13:35:53 10° N daylight
14 Apr - 22:00:43 10° NNW 22:09:22 35° NE 22:17:45 10° ESE night (unlit)
15 Apr - 00:04:58 10° NW 00:14:16 51° SW 00:23:19 10° SSE visible
15 Apr - 08:54:38 10° SE 08:55:47 10° SE 08:56:56 10° SE daylight
15 Apr - 10:51:37 10° SSW 11:01:10 65° SE 11:11:01 10° NE daylight
15 Apr - 12:58:20 10° WSW 13:06:16 28° NW 13:14:24 10° N daylight
15 Apr - 21:39:11 10° NNW 21:47:40 32° NE 21:55:53 10° ESE night (unlit)
15 Apr - 23:43:11 10° NW 23:52:36 55° SW 00:01:46 10° SSE night (unlit)
16 Apr - 10:30:03 10° SSW 10:39:30 60° SE 10:49:14 10° NE daylight
16 Apr - 12:36:24 10° WSW 12:44:33 30° NW 12:52:56 10° N daylight
16 Apr - 21:17:41 10° N 21:25:58 30° NE 21:34:00 10° ESE night (unlit)
16 Apr - 23:21:25 10° NW 23:30:57 59° SW 23:40:13 10° SSE night (unlit)
17 Apr - 10:08:30 10° SSW 10:17:51 56° SE 10:27:28 10° NE daylight
17 Apr - 12:14:30 10° WSW 12:22:50 32° NW 12:31:25 10° NNE daylight
17 Apr - 20:56:12 10° N 21:04:16 28° NE 21:12:06 10° ESE visible
17 Apr - 22:59:39 10° NW 23:09:18 63° SW 23:18:40 10° SSE night (unlit)
18 Apr - 09:46:57 10° SSW 09:56:11 52° SE 10:05:40 10° NE daylight
18 Apr - 11:52:38 10° WSW 12:01:08 34° NW 12:09:54 10° NNE daylight
18 Apr - 20:34:44 10° N 20:42:33 26° NE 20:50:10 10° E visible
18 Apr - 22:37:54 10° NW 22:47:38 68° SW 22:57:05 10° SSE night (unlit)
19 Apr - 00:50:50 10° WSW 00:52:56 11° SW 00:55:02 10° SSW night (unlit)
19 Apr - 09:25:25 10° SSW 09:34:31 49° SE 09:43:52 10° ENE daylight
19 Apr - 11:30:47 10° WSW 11:39:26 37° NW 11:48:22 10° NNE daylight
19 Apr - 20:13:17 10° N 20:20:50 24° NE 20:28:12 10° E visible
19 Apr - 22:16:10 10° NW 22:25:59 72° SW 22:35:30 10° SSE night (unlit)
20 Apr - 00:27:50 10° WSW 00:31:12 12° SW 00:34:34 10° SSW night (unlit)
20 Apr - 09:03:53 10° SSW 09:12:51 45° SE 09:22:03 10° ENE daylight
20 Apr - 11:08:57 10° WSW 11:17:44 39° NW 11:26:49 10° NNE daylight
20 Apr - 19:51:51 10° N 19:59:06 22° NE 20:06:12 10° E visible
20 Apr - 21:54:26 10° NW 22:04:19 77° SW 22:13:53 10° SE night (unlit)
21 Apr - 00:05:13 10° WSW 00:09:29 14° SW 00:13:43 10° SSW night (unlit)
21 Apr - 08:42:23 10° SSW 08:51:11 42° SE 09:00:12 10° ENE daylight
21 Apr - 10:47:08 10° WSW 10:56:03 42° NW 11:05:15 10° NNE daylight
21 Apr - 19:30:27 10° N 19:37:23 21° NE 19:44:09 10° E visible
21 Apr - 21:32:43 10° NW 21:42:40 82° SW 21:52:17 10° SE night (unlit)
21 Apr - 23:42:47 10° W 23:47:46 15° SW 23:52:42 10° SSW night (unlit)
22 Apr - 08:20:54 10° SSW 08:29:32 39° SE 08:38:21 10° ENE daylight
22 Apr - 10:25:22 10° WSW 10:34:22 45° NW 10:43:41 10° NNE daylight
22 Apr - 19:09:04 10° N 19:15:39 19° NE 19:22:04 10° E visible
22 Apr - 21:11:01 10° NW 21:21:00 88° SW 21:30:39 10° SE visible
22 Apr - 23:20:29 10° W 23:26:03 17° SW 23:31:34 10° SSW night (unlit)
23 Apr - 07:59:26 10° SSW 08:07:52 36° SE 08:16:29 10° ENE daylight
23 Apr - 10:03:35 10° WSW 10:12:41 49° NW 10:22:06 10° NNE daylight
23 Apr - 18:47:44 10° N 18:53:54 18° NE 18:59:57 10° E visible
23 Apr - 20:49:19 10° NW 20:59:20 87° NE 21:09:00 10° SE visible
23 Apr - 22:58:15 10° W 23:04:21 18° SW 23:10:23 10° S night (unlit)
